sat.trackr.live / text

‹ back to catalog

SORCE

NORAD 27651 · 2003-004A

PAYLOAD ACTIVE UNKNOWN

§ Identity

Operator
Country
US
Launch date
2003-01-25
Launch site
ERAS
Launch vehicle
Mass (kg)
RCS (m²)
1.78

Purposes: science

External: N2YO · Heavens-Above · Gunter

§ Orbital elements

Epoch: 2026-05-25T02:13:45.187104Z

Period
95.77 min
Inclination
39.9924°
Eccentricity
0.0018644
Mean motion
15.03562587 rev/d
Perigee alt
543.0 km
Apogee alt
568.8 km
Semi-major
6,934.1 km
B*
1.9459e-4
RAAN
33.4247°
Arg perigee
248.3068°
Mean anomaly
111.5741°
Rev number
26,842

§ Raw data

SORCE1 27651U 03004A   26145.09288411  .00002562  00000+0  19459-3 0  99942 27651  39.9924  33.4247 0018644 248.3068 111.5741 15.03562587268420

JSON: /api/v1/satellites/27651 · /tle

For live sub-satellite position, see the globe view (requires WebGL).

§ Visibility from observer

Set your observer location to see the next 7 days of passes ≥ 10°. The values pass through the URL so the page stays shareable.

No JS? Fill the form by hand. The geolocation button needs JavaScript.